Dades meteomassalio
Diari Summary for Agost 14, 2017 Units:  Metric    English   Both
« Previous Day
Next Day »
Diari Semanal Mensual Anual Personalitzat
  Maxima: Minima: Mijana:
Temperatura: 34.1 °C 14.8 °C 25.3 °C
Rosada: 15.9 °C 11.1 °C 13.8 °C
Humitat: 83 % 29 % 53 %
Velocitat del vent: 33.3 km/h 0.0 km/h 8.5 km/h
Racha vent: 33.3 km/h - -
Vent:- - ESE
Pressio: 1016.8 hPa 1013.4 hPa -
Pluja: 0.0 mm    
Historical Graphs
 
 
Tabular Data for Agost 14, 2017
Time Temperature Dew Point Pressure Wind Wind Speed Wind Gust Humidity Rainfall Rate (Hourly) solar Conditions
00:03 22.8 °C 15.6 °C 1016.1 hPa Calm     64 % 0.0 mm 0.0 W/m2 CLR
00:08 22.8 °C 15.4 °C 1015.8 hPa Calm     63 % 0.0 mm 0.0 W/m2 CLR
00:13 22.7 °C 15.5 °C 1015.8 hPa Calm     64 % 0.0 mm 0.0 W/m2 CLR
00:18 22.4 °C 15.3 °C 1015.8 hPa Calm     64 % 0.0 mm 0.0 W/m2 CLR
00:23 22.3 °C 15.4 °C 1015.8 hPa East 1.9 km/h 1.9 km/h 65 % 0.0 mm 0.0 W/m2 CLR
00:28 22.2 °C 15.5 °C 1015.8 hPa Calm     66 % 0.0 mm 0.0 W/m2 CLR
00:33 22.0 °C 15.6 °C 1015.8 hPa Calm     67 % 0.0 mm 0.0 W/m2 CLR
00:39 22.0 °C 15.6 °C 1015.8 hPa Calm     67 % 0.0 mm 0.0 W/m2 CLR
00:44 21.9 °C 15.2 °C 1015.8 hPa Calm     66 % 0.0 mm 0.0 W/m2 CLR
00:49 21.7 °C 15.3 °C 1015.8 hPa Calm     67 % 0.0 mm 0.0 W/m2 CLR
00:54 21.6 °C 15.4 °C 1015.8 hPa Calm     68 % 0.0 mm 0.0 W/m2 CLR
00:59 21.4 °C 15.5 °C 1016.1 hPa Calm     69 % 0.0 mm 0.0 W/m2 CLR
01:04 21.6 °C 15.6 °C 1015.8 hPa Calm     69 % 0.0 mm 0.0 W/m2 CLR
01:09 21.7 °C 15.6 °C 1015.8 hPa SE 4.8 km/h 4.8 km/h 68 % 0.0 mm 0.0 W/m2 CLR
01:14 21.8 °C 15.7 °C 1015.8 hPa Calm     68 % 0.0 mm 0.0 W/m2 CLR
01:19 21.8 °C 15.6 °C 1015.8 hPa Calm     68 % 0.0 mm 0.0 W/m2 CLR
01:24 21.7 °C 15.8 °C 1016.1 hPa ESE 6.4 km/h 6.4 km/h 69 % 0.0 mm 0.0 W/m2 CLR
01:29 21.7 °C 15.7 °C 1015.8 hPa East 5.6 km/h 5.6 km/h 69 % 0.0 mm 0.0 W/m2 CLR
01:34 21.7 °C 15.7 °C 1015.8 hPa Calm     69 % 0.0 mm 0.0 W/m2 CLR
01:39 21.6 °C 15.7 °C 1016.1 hPa Calm     69 % 0.0 mm 0.0 W/m2 CLR
01:44 21.5 °C 15.8 °C 1016.1 hPa Calm     70 % 0.0 mm 0.0 W/m2 CLR
01:49 21.4 °C 15.7 °C 1016.1 hPa Calm     70 % 0.0 mm 0.0 W/m2 CLR
01:54 21.4 °C 15.7 °C 1016.1 hPa Calm     70 % 0.0 mm 0.0 W/m2 CLR
01:59 21.3 °C 15.6 °C 1016.1 hPa Calm     70 % 0.0 mm 0.0 W/m2 CLR
02:04 21.2 °C 15.8 °C 1016.1 hPa Calm     71 % 0.0 mm 0.0 W/m2 CLR
02:09 21.2 °C 15.9 °C 1016.1 hPa Calm     72 % 0.0 mm 0.0 W/m2 CLR
02:14 21.2 °C 15.9 °C 1016.1 hPa ESE 5.6 km/h   72 % 0.0 mm 0.0 W/m2 CLR
02:19 21.2 °C 15.9 °C 1016.1 hPa Calm     72 % 0.0 mm 0.0 W/m2 CLR
02:24 21.1 °C 15.7 °C 1016.1 hPa Calm     71 % 0.0 mm 0.0 W/m2 CLR
02:29 20.9 °C 15.3 °C 1016.1 hPa Calm     70 % 0.0 mm 0.0 W/m2 CLR
02:34 20.7 °C 14.8 °C 1016.1 hPa Calm     69 % 0.0 mm 0.0 W/m2 CLR
02:39 20.5 °C 14.6 °C 1016.1 hPa Calm     69 % 0.0 mm 0.0 W/m2 CLR
02:44 20.3 °C 14.6 °C 1015.8 hPa Calm     70 % 0.0 mm 0.0 W/m2 CLR
02:49 20.2 °C 14.9 °C 1016.1 hPa Calm     72 % 0.0 mm 0.0 W/m2 CLR
02:54 20.1 °C 15.3 °C 1016.1 hPa Calm     74 % 0.0 mm 0.0 W/m2 CLR
02:59 20.1 °C 15.3 °C 1016.1 hPa Calm     74 % 0.0 mm 0.0 W/m2 CLR
03:04 20.1 °C 15.1 °C 1016.1 hPa Calm     73 % 0.0 mm 0.0 W/m2 CLR
03:09 20.1 °C 15.1 °C 1015.8 hPa Calm     73 % 0.0 mm 0.0 W/m2 CLR
03:14 19.9 °C 14.9 °C 1015.8 hPa Calm     73 % 0.0 mm 0.0 W/m2 CLR
03:19 19.7 °C 14.7 °C 1015.8 hPa Calm     73 % 0.0 mm 0.0 W/m2 CLR
03:24 19.6 °C 14.8 °C 1015.8 hPa Calm     74 % 0.0 mm 0.0 W/m2 CLR
03:29 19.5 °C 14.7 °C 1015.8 hPa Calm     74 % 0.0 mm 0.0 W/m2 CLR
03:34 19.4 °C 14.6 °C 1015.8 hPa Calm     74 % 0.0 mm 0.0 W/m2 CLR
03:39 19.3 °C 14.5 °C 1015.8 hPa Calm     74 % 0.0 mm 0.0 W/m2 CLR
03:44 19.1 °C 14.4 °C 1016.1 hPa Calm     74 % 0.0 mm 0.0 W/m2 CLR
03:49 18.9 °C 14.2 °C 1016.1 hPa Calm     74 % 0.0 mm 0.0 W/m2 CLR
03:54 18.7 °C 14.2 °C 1016.1 hPa Calm     75 % 0.0 mm 0.0 W/m2 CLR
03:59 18.6 °C 14.1 °C 1016.1 hPa Calm     75 % 0.0 mm 0.0 W/m2 CLR
04:04 18.4 °C 13.7 °C 1015.8 hPa Calm     74 % 0.0 mm 0.0 W/m2 CLR
04:09 18.2 °C 13.9 °C 1015.8 hPa Calm     76 % 0.0 mm 0.0 W/m2 CLR
04:14 18.1 °C 14.0 °C 1015.8 hPa Calm     77 % 0.0 mm 0.0 W/m2 CLR
04:19 18.0 °C 13.9 °C 1015.8 hPa Calm     77 % 0.0 mm 0.0 W/m2 CLR
04:24 17.8 °C 13.7 °C 1015.8 hPa Calm     77 % 0.0 mm 0.0 W/m2 CLR
04:29 17.7 °C 13.4 °C 1015.8 hPa Calm     76 % 0.0 mm 0.0 W/m2 CLR
04:34 17.5 °C 13.4 °C 1015.8 hPa Calm     77 % 0.0 mm 0.0 W/m2 CLR
04:39 17.4 °C 13.5 °C 1015.8 hPa Calm     78 % 0.0 mm 0.0 W/m2 CLR
04:45 17.3 °C 13.4 °C 1015.8 hPa Calm     78 % 0.0 mm 0.0 W/m2 CLR
04:50 17.2 °C 13.3 °C 1015.8 hPa Calm     78 % 0.0 mm 0.0 W/m2 CLR
04:55 17.1 °C 13.2 °C 1015.8 hPa Calm     78 % 0.0 mm 0.0 W/m2 CLR
05:00 17.0 °C 13.3 °C 1015.8 hPa Calm     79 % 0.0 mm 0.0 W/m2 CLR
05:05 16.9 °C 13.4 °C 1015.8 hPa Calm     80 % 0.0 mm 0.0 W/m2 CLR
05:10 16.8 °C 13.3 °C 1015.8 hPa Calm     80 % 0.0 mm 0.0 W/m2 CLR
05:15 16.8 °C 13.5 °C 1015.8 hPa Calm     81 % 0.0 mm 0.0 W/m2 CLR
05:20 16.8 °C 13.5 °C 1015.8 hPa Calm     81 % 0.0 mm 0.0 W/m2 CLR
05:25 16.7 °C 13.2 °C 1015.8 hPa Calm     80 % 0.0 mm 0.0 W/m2 CLR
05:30 16.6 °C 13.1 °C 1015.8 hPa Calm     80 % 0.0 mm 0.0 W/m2 CLR
05:35 16.5 °C 13.2 °C 1015.8 hPa Calm     81 % 0.0 mm 0.0 W/m2 CLR
05:40 16.4 °C 13.2 °C 1015.8 hPa Calm     81 % 0.0 mm 0.0 W/m2 CLR
05:45 16.3 °C 13.0 °C 1015.8 hPa Calm     81 % 0.0 mm 0.0 W/m2 CLR
05:50 16.1 °C 12.7 °C 1015.8 hPa Calm     80 % 0.0 mm 0.0 W/m2 CLR
05:55 16.1 °C 12.8 °C 1015.8 hPa Calm     81 % 0.0 mm 0.0 W/m2 CLR
06:00 15.9 °C 12.9 °C 1015.8 hPa Calm     82 % 0.0 mm 0.0 W/m2 CLR
06:05 15.9 °C 12.7 °C 1015.8 hPa Calm     81 % 0.0 mm 0.0 W/m2 CLR
06:10 15.8 °C 12.6 °C 1015.8 hPa Calm     81 % 0.0 mm 0.0 W/m2 CLR
06:15 15.8 °C 12.5 °C 1015.8 hPa Calm     81 % 0.0 mm 0.0 W/m2 CLR
06:20 15.7 °C 12.7 °C 1015.8 hPa Calm     82 % 0.0 mm 0.0 W/m2 CLR
06:25 15.6 °C 12.6 °C 1015.8 hPa Calm     82 % 0.0 mm 0.0 W/m2 CLR
06:30 15.5 °C 12.4 °C 1015.8 hPa Calm     82 % 0.0 mm 0.0 W/m2 CLR
06:35 15.4 °C 12.5 °C 1015.8 hPa Calm     83 % 0.0 mm 0.0 W/m2 CLR
06:40 15.4 °C 12.3 °C 1016.1 hPa Calm     82 % 0.0 mm 0.0 W/m2 CLR
06:45 15.4 °C 12.5 °C 1016.1 hPa Calm     83 % 0.0 mm 0.0 W/m2 CLR
06:50 15.3 °C 12.3 °C 1016.1 hPa Calm     82 % 0.0 mm 0.0 W/m2 CLR
06:55 15.2 °C 12.2 °C 1016.1 hPa Calm     82 % 0.0 mm 0.0 W/m2 CLR
07:00 15.2 °C 12.3 °C 1016.1 hPa Calm     83 % 0.0 mm 0.0 W/m2 OVC
07:05 15.1 °C 12.2 °C 1016.1 hPa Calm     83 % 0.0 mm 0.0 W/m2 OVC
07:10 15.1 °C 12.2 °C 1016.1 hPa Calm     83 % 0.0 mm 5.0 W/m2 OVC
07:15 15.0 °C 12.1 °C 1016.1 hPa Calm     83 % 0.0 mm 7.0 W/m2 BKN
07:20 14.9 °C 12.0 °C 1016.1 hPa Calm     83 % 0.0 mm 11.0 W/m2 BKN
07:25 14.9 °C 12.0 °C 1016.1 hPa Calm     83 % 0.0 mm 14.0 W/m2 BKN
07:30 14.8 °C 11.9 °C 1016.1 hPa Calm     83 % 0.0 mm 16.0 W/m2 BKN
07:35 14.9 °C 12.1 °C 1016.1 hPa Calm     83 % 0.0 mm 19.0 W/m2 BKN
07:40 15.0 °C 12.1 °C 1016.1 hPa Calm     83 % 0.0 mm 25.0 W/m2 BKN
07:45 15.2 °C 12.1 °C 1016.1 hPa Calm     82 % 0.0 mm 33.0 W/m2 BKN
07:50 15.3 °C 12.3 °C 1016.1 hPa Calm     82 % 0.0 mm 42.0 W/m2 BKN
07:55 15.4 °C 12.2 °C 1016.1 hPa Calm     81 % 0.0 mm 46.0 W/m2 SCT
08:00 15.7 °C 12.4 °C 1016.5 hPa Calm     81 % 0.0 mm 56.0 W/m2 SCT
08:05 16.0 °C 12.6 °C 1016.5 hPa Calm     80 % 0.0 mm 81.0 W/m2 FEW
08:10 16.3 °C 12.6 °C 1016.5 hPa Calm     79 % 0.0 mm 97.0 W/m2 FEW
08:15 16.6 °C 12.8 °C 1016.5 hPa Calm     78 % 0.0 mm 111.0 W/m2 CLR
08:20 16.8 °C 12.8 °C 1016.5 hPa Calm     77 % 0.0 mm 128.0 W/m2 CLR
08:25 17.0 °C 12.7 °C 1016.5 hPa Calm     76 % 0.0 mm 144.0 W/m2 CLR
08:30 17.2 °C 12.9 °C 1016.5 hPa Calm     76 % 0.0 mm 165.0 W/m2 CLR
08:35 17.6 °C 13.3 °C 1016.5 hPa Calm     76 % 0.0 mm 183.0 W/m2 CLR
08:40 18.0 °C 13.7 °C 1016.5 hPa Calm     76 % 0.0 mm 200.0 W/m2 CLR
08:45 18.4 °C 13.7 °C 1016.5 hPa Calm     74 % 0.0 mm 218.0 W/m2 CLR
08:50 18.6 °C 14.1 °C 1016.5 hPa Calm     75 % 0.0 mm 232.0 W/m2 CLR
08:55 18.9 °C 14.4 °C 1016.5 hPa Calm     75 % 0.0 mm 246.0 W/m2 CLR
09:00 19.3 °C 14.4 °C 1016.5 hPa Calm     73 % 0.0 mm 264.0 W/m2 CLR
09:02 19.5 °C 14.3 °C 1016.5 hPa Calm     72 % 0.0 mm 271.0 W/m2 CLR
09:07 20.0 °C 14.1 °C 1016.5 hPa Calm     69 % 0.0 mm 288.0 W/m2 CLR
09:12 20.5 °C 14.2 °C 1016.5 hPa Calm     67 % 0.0 mm 302.0 W/m2 CLR
09:17 20.9 °C 14.1 °C 1016.5 hPa Calm     65 % 0.0 mm 318.0 W/m2 CLR
09:22 21.2 °C 14.1 °C 1016.8 hPa Calm     64 % 0.0 mm 334.0 W/m2 CLR
09:27 21.7 °C 14.1 °C 1016.8 hPa Calm     62 % 0.0 mm 53.0 W/m2 CLR
09:32 22.1 °C 14.2 °C 1016.8 hPa Calm     61 % 0.0 mm 336.0 W/m2 CLR
09:37 22.3 °C 14.2 °C 1016.5 hPa Calm     60 % 0.0 mm 381.0 W/m2 CLR
09:42 22.5 °C 14.1 °C 1016.5 hPa Calm     59 % 0.0 mm 397.0 W/m2 CLR
09:47 22.8 °C 13.3 °C 1016.5 hPa Calm     55 % 0.0 mm 411.0 W/m2 CLR
09:52 23.3 °C 12.9 °C 1016.5 hPa Calm     52 % 0.0 mm 425.0 W/m2 CLR
09:57 23.8 °C 13.1 °C 1016.5 hPa Calm     51 % 0.0 mm 445.0 W/m2 CLR
10:02 24.2 °C 12.8 °C 1016.5 hPa Calm     49 % 0.0 mm 461.0 W/m2 CLR
10:07 24.3 °C 12.6 °C 1016.5 hPa Calm     48 % 0.0 mm 478.0 W/m2 CLR
10:12 24.6 °C 12.2 °C 1016.5 hPa Calm     46 % 0.0 mm 490.0 W/m2 CLR
10:17 25.1 °C 12.0 °C 1016.5 hPa Calm     44 % 0.0 mm 506.0 W/m2 CLR
10:22 25.7 °C 13.2 °C 1016.5 hPa Calm     46 % 0.0 mm 519.0 W/m2 CLR
10:27 26.2 °C 14.3 °C 1016.1 hPa Calm     48 % 0.0 mm 533.0 W/m2 CLR
10:32 26.5 °C 14.6 °C 1016.1 hPa NNE 5.6 km/h 5.6 km/h 48 % 0.0 mm 548.0 W/m2 CLR
10:37 26.7 °C 14.8 °C 1016.1 hPa ENE 5.6 km/h 5.6 km/h 48 % 0.0 mm 561.0 W/m2 CLR
10:42 26.9 °C 15.0 °C 1016.1 hPa NE 9.3 km/h 9.3 km/h 48 % 0.0 mm 577.0 W/m2 CLR
10:47 27.0 °C 15.1 °C 1016.1 hPa NE 4.8 km/h 4.8 km/h 48 % 0.0 mm 587.0 W/m2 CLR
10:52 27.1 °C 15.2 °C 1016.1 hPa NE 11.1 km/h 11.1 km/h 48 % 0.0 mm 601.0 W/m2 CLR
10:57 27.4 °C 15.1 °C 1016.1 hPa NNE 9.7 km/h 9.7 km/h 47 % 0.0 mm 612.0 W/m2 CLR
11:02 27.6 °C 14.6 °C 1016.1 hPa NE 9.3 km/h 9.3 km/h 45 % 0.0 mm 624.0 W/m2 CLR
11:07 27.7 °C 14.3 °C 1016.1 hPa ENE 11.1 km/h 11.1 km/h 44 % 0.0 mm 636.0 W/m2 CLR
11:10 27.8 °C 14.4 °C 1016.1 hPa ENE 6.4 km/h 6.4 km/h 44 % 0.0 mm 643.0 W/m2 CLR
11:15 27.9 °C 14.5 °C 1016.1 hPa NE 9.3 km/h 9.3 km/h 44 % 0.0 mm 657.0 W/m2 CLR
11:20 28.3 °C 14.5 °C 1016.1 hPa NE 7.4 km/h 7.4 km/h 43 % 0.0 mm 664.0 W/m2 CLR
11:25 28.6 °C 13.3 °C 1016.1 hPa NNE 3.7 km/h 3.7 km/h 39 % 0.0 mm 675.0 W/m2 CLR
11:30 28.8 °C 13.1 °C 1016.1 hPa ENE 5.6 km/h 5.6 km/h 38 % 0.0 mm 682.0 W/m2 CLR
11:35 29.1 °C 12.9 °C 1016.1 hPa East 9.3 km/h 9.3 km/h 37 % 0.0 mm 698.0 W/m2 CLR
11:40 29.2 °C 13.8 °C 1016.1 hPa Calm     39 % 0.0 mm 705.0 W/m2 CLR
11:45 29.4 °C 14.4 °C 1016.1 hPa NE 7.4 km/h 7.4 km/h 40 % 0.0 mm 721.0 W/m2 CLR
11:50 29.6 °C 14.2 °C 1016.1 hPa NE 14.8 km/h 14.8 km/h 39 % 0.0 mm 733.0 W/m2 CLR
11:55 29.7 °C 13.5 °C 1016.1 hPa ENE 5.6 km/h 5.6 km/h 37 % 0.0 mm 745.0 W/m2 CLR
12:00 29.9 °C 14.1 °C 1015.8 hPa NE 8.0 km/h 8.0 km/h 38 % 0.0 mm 754.0 W/m2 CLR
12:05 30.1 °C 13.8 °C 1016.1 hPa NNE 7.4 km/h 7.4 km/h 37 % 0.0 mm 761.0 W/m2 CLR
12:10 30.4 °C 13.7 °C 1015.8 hPa Calm     36 % 0.0 mm 775.0 W/m2 CLR
12:15 30.7 °C 13.5 °C 1015.8 hPa NE 9.3 km/h 9.3 km/h 35 % 0.0 mm 786.0 W/m2 CLR
12:20 30.8 °C 13.6 °C 1015.8 hPa NE 11.1 km/h 11.1 km/h 35 % 0.0 mm 791.0 W/m2 CLR
12:25 30.9 °C 14.1 °C 1015.8 hPa Calm     36 % 0.0 mm 798.0 W/m2 CLR
12:30 31.4 °C 13.2 °C 1015.8 hPa ENE 8.0 km/h 8.0 km/h 33 % 0.0 mm 809.0 W/m2 CLR
12:35 31.6 °C 12.4 °C 1015.8 hPa ESE 11.1 km/h 11.1 km/h 31 % 0.0 mm 819.0 W/m2 CLR
12:40 31.5 °C 12.3 °C 1015.8 hPa Calm     31 % 0.0 mm 824.0 W/m2 CLR
12:45 31.6 °C 11.9 °C 1015.8 hPa ENE 5.6 km/h 5.6 km/h 30 % 0.0 mm 831.0 W/m2 CLR
12:50 31.9 °C 12.2 °C 1015.8 hPa ESE 6.4 km/h 6.4 km/h 30 % 0.0 mm 837.0 W/m2 CLR
12:55 32.0 °C 12.3 °C 1015.5 hPa SE 14.5 km/h 14.5 km/h 30 % 0.0 mm 844.0 W/m2 CLR
13:00 31.8 °C 12.1 °C 1015.5 hPa East 16.1 km/h 16.1 km/h 30 % 0.0 mm 847.0 W/m2 CLR
13:05 32.1 °C 12.8 °C 1015.5 hPa SSE 1.6 km/h 1.6 km/h 31 % 0.0 mm 854.0 W/m2 CLR
13:10 32.3 °C 13.5 °C 1015.5 hPa East 9.3 km/h 9.3 km/h 32 % 0.0 mm 858.0 W/m2 CLR
13:15 32.4 °C 13.6 °C 1015.1 hPa ENE 9.7 km/h 9.7 km/h 32 % 0.0 mm 863.0 W/m2 CLR
13:20 32.5 °C 14.6 °C 1015.1 hPa ENE 16.1 km/h 16.1 km/h 34 % 0.0 mm 861.0 W/m2 CLR
13:25 32.6 °C 15.2 °C 1015.1 hPa ESE 13.0 km/h 13.0 km/h 35 % 0.0 mm 865.0 W/m2 CLR
13:30 32.8 °C 15.3 °C 1015.1 hPa East 13.0 km/h 13.0 km/h 35 % 0.0 mm 867.0 W/m2 CLR
13:35 32.9 °C 15.4 °C 1015.1 hPa ENE 5.6 km/h 5.6 km/h 35 % 0.0 mm 868.0 W/m2 CLR
13:40 33.1 °C 15.6 °C 1014.8 hPa East 13.0 km/h 13.0 km/h 35 % 0.0 mm 874.0 W/m2 CLR
13:45 33.1 °C 15.2 °C 1014.8 hPa ESE 9.3 km/h 9.3 km/h 34 % 0.0 mm 874.0 W/m2 CLR
13:50 33.2 °C 15.2 °C 1014.8 hPa NE 13.0 km/h 13.0 km/h 34 % 0.0 mm 872.0 W/m2 CLR
13:55 33.4 °C 15.4 °C 1014.4 hPa East 13.0 km/h 13.0 km/h 34 % 0.0 mm 879.0 W/m2 CLR
14:00 33.4 °C 15.4 °C 1014.4 hPa ENE 22.2 km/h 22.2 km/h 34 % 0.0 mm 875.0 W/m2 CLR
14:05 33.4 °C 14.9 °C 1014.4 hPa ENE 7.4 km/h 7.4 km/h 33 % 0.0 mm 881.0 W/m2 CLR
14:10 33.6 °C 13.1 °C 1014.4 hPa East 16.7 km/h 16.7 km/h 29 % 0.0 mm 877.0 W/m2 CLR
14:15 33.6 °C 13.7 °C 1014.4 hPa East 14.8 km/h 14.8 km/h 30 % 0.0 mm 881.0 W/m2 CLR
14:20 33.5 °C 13.0 °C 1014.4 hPa East 16.7 km/h 16.7 km/h 29 % 0.0 mm 882.0 W/m2 CLR
14:25 34.0 °C 13.4 °C 1014.1 hPa SE 18.5 km/h 18.5 km/h 29 % 0.0 mm 877.0 W/m2 CLR
14:27 34.1 °C 13.6 °C 1014.1 hPa ESE 18.5 km/h 18.5 km/h 29 % 0.0 mm 874.0 W/m2 CLR
14:32 34.1 °C 13.6 °C 1014.4 hPa SE 18.5 km/h 18.5 km/h 29 % 0.0 mm 874.0 W/m2 CLR
14:37 33.8 °C 13.8 °C 1014.1 hPa SE 20.4 km/h 20.4 km/h 30 % 0.0 mm 872.0 W/m2 CLR
14:42 33.6 °C 14.6 °C 1014.1 hPa SE 27.8 km/h 27.8 km/h 32 % 0.0 mm 865.0 W/m2 CLR
14:47 33.7 °C 14.7 °C 1014.1 hPa SE 18.5 km/h 18.5 km/h 32 % 0.0 mm 865.0 W/m2 CLR
14:52 33.4 °C 14.9 °C 1014.1 hPa ESE 14.5 km/h 14.5 km/h 33 % 0.0 mm 860.0 W/m2 CLR
14:57 33.3 °C 14.8 °C 1014.1 hPa East 22.2 km/h 22.2 km/h 33 % 0.0 mm 856.0 W/m2 CLR
15:02 33.4 °C 14.9 °C 1013.8 hPa ESE 20.4 km/h 20.4 km/h 33 % 0.0 mm 853.0 W/m2 CLR
15:07 33.5 °C 15.5 °C 1013.8 hPa ESE 25.7 km/h 25.7 km/h 34 % 0.0 mm 844.0 W/m2 CLR
15:12 33.4 °C 15.4 °C 1013.8 hPa SE 22.2 km/h 22.2 km/h 34 % 0.0 mm 842.0 W/m2 CLR
15:17 33.5 °C 15.5 °C 1013.8 hPa SE 29.6 km/h 29.6 km/h 34 % 0.0 mm 840.0 W/m2 CLR
15:22 32.9 °C 15.9 °C 1013.8 hPa SSE 29.6 km/h 29.6 km/h 36 % 0.0 mm 831.0 W/m2 CLR
15:25 32.8 °C 15.8 °C 1013.8 hPa ESE 24.1 km/h 24.1 km/h 36 % 0.0 mm 830.0 W/m2 CLR
15:30 33.2 °C 15.7 °C 1013.8 hPa ESE 29.6 km/h 29.6 km/h 35 % 0.0 mm 823.0 W/m2 CLR
15:35 33.3 °C 15.3 °C 1013.4 hPa East 27.8 km/h 27.8 km/h 34 % 0.0 mm 814.0 W/m2 CLR
15:41 33.2 °C 15.2 °C 1013.4 hPa SE 29.6 km/h 29.6 km/h 34 % 0.0 mm 805.0 W/m2 CLR
15:46 33.3 °C 15.3 °C 1013.4 hPa ESE 22.2 km/h 22.2 km/h 34 % 0.0 mm 796.0 W/m2 CLR
15:51 33.4 °C 15.9 °C 1013.4 hPa SE 18.5 km/h 19.0 km/h 35 % 0.0 mm 788.0 W/m2 CLR
15:56 33.7 °C 15.6 °C 1013.4 hPa ESE 31.5 km/h 31.5 km/h 34 % 0.0 mm 782.0 W/m2 CLR
16:01 33.4 °C 15.8 °C 1013.4 hPa ESE 22.2 km/h 22.2 km/h 35 % 0.0 mm 775.0 W/m2 CLR
16:06 33.2 °C 15.2 °C 1013.4 hPa ESE 33.3 km/h 33.3 km/h 34 % 0.0 mm 765.0 W/m2 CLR
16:11 33.2 °C 15.2 °C 1013.4 hPa ESE 27.8 km/h 27.8 km/h 34 % 0.0 mm 754.0 W/m2 CLR
16:16 33.2 °C 15.7 °C 1013.4 hPa ESE 22.2 km/h 22.2 km/h 35 % 0.0 mm 744.0 W/m2 CLR
16:21 33.1 °C 15.2 °C 1013.4 hPa ESE 27.8 km/h 27.8 km/h 34 % 0.0 mm 735.0 W/m2 CLR
16:26 33.2 °C 15.2 °C 1013.4 hPa SSE 27.8 km/h 27.8 km/h 34 % 0.0 mm 722.0 W/m2 CLR
16:31 33.4 °C 14.5 °C 1013.4 hPa SSE 31.5 km/h 31.5 km/h 32 % 0.0 mm 714.0 W/m2 CLR
16:36 33.2 °C 14.8 °C 1013.4 hPa ESE 31.5 km/h 31.5 km/h 33 % 0.0 mm 703.0 W/m2 CLR
16:41 33.4 °C 15.4 °C 1013.4 hPa ESE 22.2 km/h 22.2 km/h 34 % 0.0 mm 689.0 W/m2 CLR
16:46 33.3 °C 14.8 °C 1013.4 hPa SSE 27.8 km/h 27.8 km/h 33 % 0.0 mm 677.0 W/m2 CLR
16:51 33.0 °C 15.1 °C 1013.4 hPa East 31.5 km/h 31.5 km/h 34 % 0.0 mm 668.0 W/m2 CLR
16:56 32.8 °C 14.9 °C 1013.4 hPa ESE 24.1 km/h 24.1 km/h 34 % 0.0 mm 650.0 W/m2 CLR
17:01 32.8 °C 14.9 °C 1013.8 hPa South 22.2 km/h 22.8 km/h 34 % 0.0 mm 640.0 W/m2 CLR
17:06 32.6 °C 14.7 °C 1013.4 hPa SE 29.6 km/h 29.6 km/h 34 % 0.0 mm 631.0 W/m2 CLR
17:11 32.4 °C 14.9 °C 1013.4 hPa ESE 25.9 km/h 25.9 km/h 35 % 0.0 mm 619.0 W/m2 CLR
17:16 32.3 °C 14.9 °C 1013.8 hPa ESE 31.5 km/h 31.5 km/h 35 % 0.0 mm 603.0 W/m2 CLR
17:21 32.4 °C 14.9 °C 1013.8 hPa SE 29.6 km/h 29.6 km/h 35 % 0.0 mm 591.0 W/m2 CLR
17:26 32.4 °C 14.9 °C 1013.4 hPa SE 24.1 km/h 24.1 km/h 35 % 0.0 mm 578.0 W/m2 CLR
17:31 32.5 °C 15.1 °C 1013.4 hPa ESE 18.5 km/h 18.5 km/h 35 % 0.0 mm 564.0 W/m2 CLR
17:36 32.4 °C 15.0 °C 1013.4 hPa SE 20.4 km/h 20.4 km/h 35 % 0.0 mm 552.0 W/m2 CLR
17:41 32.1 °C 14.7 °C 1013.4 hPa SE 27.8 km/h 27.8 km/h 35 % 0.0 mm 536.0 W/m2 CLR
17:46 32.2 °C 15.3 °C 1013.4 hPa ESE 22.5 km/h 22.5 km/h 36 % 0.0 mm 526.0 W/m2 CLR
17:52 32.0 °C 14.6 °C 1013.4 hPa ESE 27.8 km/h 27.8 km/h 35 % 0.0 mm 510.0 W/m2 CLR
17:57 31.7 °C 14.3 °C 1013.4 hPa ESE 29.6 km/h 29.6 km/h 35 % 0.0 mm 497.0 W/m2 CLR
18:02 31.7 °C 14.3 °C 1013.4 hPa ESE 31.5 km/h 31.5 km/h 35 % 0.0 mm 480.0 W/m2 CLR
18:07 31.7 °C 14.3 °C 1013.4 hPa SE 24.1 km/h 24.1 km/h 35 % 0.0 mm 464.0 W/m2 CLR
18:12 31.8 °C 14.4 °C 1013.4 hPa ESE 29.0 km/h 29.0 km/h 35 % 0.0 mm 452.0 W/m2 CLR
18:17 31.7 °C 14.3 °C 1013.4 hPa SE 27.8 km/h 27.8 km/h 35 % 0.0 mm 436.0 W/m2 CLR
18:22 31.5 °C 14.6 °C 1013.4 hPa SE 14.8 km/h 14.8 km/h 36 % 0.0 mm 418.0 W/m2 CLR
18:27 31.7 °C 14.3 °C 1013.4 hPa SE 16.7 km/h 16.7 km/h 35 % 0.0 mm 403.0 W/m2 CLR
18:32 31.7 °C 14.4 °C 1013.4 hPa SE 18.5 km/h 18.5 km/h 35 % 0.0 mm 387.0 W/m2 CLR
18:37 31.7 °C 14.8 °C 1013.4 hPa SE 25.9 km/h 25.9 km/h 36 % 0.0 mm 369.0 W/m2 CLR
18:42 31.7 °C 14.3 °C 1013.4 hPa SE 22.2 km/h 22.2 km/h 35 % 0.0 mm 355.0 W/m2 CLR
18:47 31.6 °C 13.8 °C 1013.4 hPa ESE 25.9 km/h 25.9 km/h 34 % 0.0 mm 336.0 W/m2 CLR
18:52 31.4 °C 14.1 °C 1013.4 hPa ESE 18.5 km/h 18.5 km/h 35 % 0.0 mm 322.0 W/m2 CLR
18:57 31.4 °C 14.6 °C 1013.4 hPa SE 29.0 km/h 29.0 km/h 36 % 0.0 mm 306.0 W/m2 CLR
19:02 31.1 °C 14.3 °C 1013.4 hPa SE 29.6 km/h 29.6 km/h 36 % 0.0 mm 290.0 W/m2 CLR
19:07 30.8 °C 14.1 °C 1013.4 hPa SE 27.8 km/h 27.8 km/h 36 % 0.0 mm 271.0 W/m2 CLR
19:12 30.8 °C 14.1 °C 1013.4 hPa SE 27.8 km/h 27.8 km/h 36 % 0.0 mm 255.0 W/m2 CLR
19:17 30.6 °C 13.8 °C 1013.4 hPa ESE 20.9 km/h 20.9 km/h 36 % 0.0 mm 241.0 W/m2 CLR
19:22 30.7 °C 13.9 °C 1013.4 hPa SE 22.2 km/h 22.2 km/h 36 % 0.0 mm 223.0 W/m2 CLR
19:27 30.7 °C 13.9 °C 1013.4 hPa SE 16.7 km/h 16.7 km/h 36 % 0.0 mm 204.0 W/m2 CLR
19:32 30.6 °C 12.9 °C 1013.4 hPa ESE 25.9 km/h 25.9 km/h 34 % 0.0 mm 190.0 W/m2 CLR
19:37 30.4 °C 12.8 °C 1013.4 hPa SE 22.2 km/h 22.2 km/h 34 % 0.0 mm 172.0 W/m2 CLR
19:42 30.3 °C 12.7 °C 1013.4 hPa SE 17.7 km/h 17.7 km/h 34 % 0.0 mm 156.0 W/m2 CLR
19:47 30.2 °C 12.6 °C 1013.4 hPa SSE 16.7 km/h 16.7 km/h 34 % 0.0 mm 139.0 W/m2 CLR
19:52 30.1 °C 12.5 °C 1013.4 hPa SE 18.5 km/h 18.5 km/h 34 % 0.0 mm 121.0 W/m2 CLR
19:57 30.0 °C 11.9 °C 1013.4 hPa SE 14.8 km/h 14.8 km/h 33 % 0.0 mm 105.0 W/m2 CLR
20:02 29.9 °C 11.9 °C 1013.8 hPa SE 20.4 km/h 20.4 km/h 33 % 0.0 mm 90.0 W/m2 CLR
20:07 29.8 °C 11.8 °C 1013.8 hPa SE 20.4 km/h 20.4 km/h 33 % 0.0 mm 76.0 W/m2 FEW
20:12 29.7 °C 11.7 °C 1013.8 hPa ESE 18.5 km/h 18.5 km/h 33 % 0.0 mm 62.0 W/m2 SCT
20:17 29.4 °C 11.9 °C 1013.8 hPa SE 14.8 km/h 14.8 km/h 34 % 0.0 mm 47.0 W/m2 SCT
20:22 29.2 °C 12.2 °C 1013.8 hPa SSE 22.2 km/h 22.2 km/h 35 % 0.0 mm 40.0 W/m2 BKN
20:27 29.0 °C 12.4 °C 1013.8 hPa SE 20.4 km/h 20.4 km/h 36 % 0.0 mm 30.0 W/m2 BKN
20:32 28.8 °C 12.3 °C 1013.8 hPa South 13.0 km/h 13.0 km/h 36 % 0.0 mm 23.0 W/m2 BKN
20:37 28.7 °C 12.6 °C 1014.1 hPa SE 19.3 km/h 19.3 km/h 37 % 0.0 mm 18.0 W/m2 BKN
20:42 28.4 °C 12.3 °C 1014.1 hPa SE 18.5 km/h 18.5 km/h 37 % 0.0 mm 14.0 W/m2 BKN
20:47 28.2 °C 12.6 °C 1014.1 hPa SSE 18.5 km/h 18.5 km/h 38 % 0.0 mm 11.0 W/m2 BKN
20:52 28.1 °C 12.4 °C 1014.1 hPa SSE 18.5 km/h 18.5 km/h 38 % 0.0 mm 7.0 W/m2 BKN
20:57 27.9 °C 12.7 °C 1014.1 hPa SE 13.0 km/h 13.0 km/h 39 % 0.0 mm 0.0 W/m2 OVC
21:02 27.7 °C 12.5 °C 1014.1 hPa South 14.8 km/h 14.8 km/h 39 % 0.0 mm 0.0 W/m2 CLR
21:07 27.6 °C 12.3 °C 1014.1 hPa SSE 9.7 km/h 9.7 km/h 39 % 0.0 mm 0.0 W/m2 CLR
21:12 27.4 °C 12.3 °C 1014.1 hPa SSE 11.1 km/h 11.1 km/h 39 % 0.0 mm 0.0 W/m2 CLR
21:17 27.3 °C 12.1 °C 1014.4 hPa ESE 6.4 km/h 6.4 km/h 39 % 0.0 mm 0.0 W/m2 CLR
21:22 27.2 °C 12.4 °C 1014.4 hPa SSE 5.6 km/h 5.6 km/h 40 % 0.0 mm 0.0 W/m2 CLR
21:23 27.1 °C 12.3 °C 1014.4 hPa ESE 3.2 km/h 3.2 km/h 40 % 0.0 mm 0.0 W/m2 CLR
21:28 26.9 °C 12.2 °C 1014.4 hPa Calm     40 % 0.0 mm 0.0 W/m2 CLR
21:33 26.8 °C 12.4 °C 1014.4 hPa ESE 5.6 km/h 5.6 km/h 41 % 0.0 mm 0.0 W/m2 CLR
21:38 26.5 °C 12.9 °C 1014.4 hPa ESE 7.4 km/h 7.4 km/h 43 % 0.0 mm 0.0 W/m2 CLR
21:43 26.2 °C 12.7 °C 1014.8 hPa ESE 9.7 km/h 9.7 km/h 43 % 0.0 mm 0.0 W/m2 CLR
21:48 26.1 °C 12.9 °C 1014.8 hPa ESE 11.1 km/h 11.1 km/h 44 % 0.0 mm 0.0 W/m2 CLR
21:53 26.0 °C 12.8 °C 1014.8 hPa SE 7.4 km/h 7.4 km/h 44 % 0.0 mm 0.0 W/m2 CLR
21:58 25.9 °C 12.7 °C 1014.8 hPa Calm     44 % 0.0 mm 0.0 W/m2 CLR
22:03 25.7 °C 12.6 °C 1015.1 hPa SSE 5.6 km/h 5.6 km/h 44 % 0.0 mm 0.0 W/m2 CLR
22:08 25.7 °C 12.6 °C 1015.1 hPa SSE 9.3 km/h 9.3 km/h 44 % 0.0 mm 0.0 W/m2 CLR
22:13 25.8 °C 12.2 °C 1014.8 hPa SE 8.0 km/h 8.0 km/h 43 % 0.0 mm 0.0 W/m2 CLR
22:18 25.7 °C 12.2 °C 1015.1 hPa SE 8.0 km/h 8.0 km/h 43 % 0.0 mm 0.0 W/m2 CLR
22:23 25.6 °C 12.1 °C 1015.1 hPa SE 5.6 km/h 5.6 km/h 43 % 0.0 mm 0.0 W/m2 CLR
22:28 25.6 °C 11.7 °C 1015.1 hPa SE 5.6 km/h 5.6 km/h 42 % 0.0 mm 0.0 W/m2 CLR
22:33 25.5 °C 12.0 °C 1015.1 hPa Calm     43 % 0.0 mm 0.0 W/m2 CLR
22:38 25.3 °C 11.5 °C 1015.1 hPa SSE 4.8 km/h 4.8 km/h 42 % 0.0 mm 0.0 W/m2 CLR
22:43 25.3 °C 11.4 °C 1015.1 hPa Calm     42 % 0.0 mm 0.0 W/m2 CLR
22:48 25.2 °C 11.4 °C 1015.1 hPa SE 5.6 km/h 5.6 km/h 42 % 0.0 mm 0.0 W/m2 CLR
22:53 25.2 °C 11.4 °C 1015.1 hPa SSE 3.7 km/h   42 % 0.0 mm 0.0 W/m2 CLR
22:58 25.3 °C 11.1 °C 1015.1 hPa SE 5.6 km/h   41 % 0.0 mm 0.0 W/m2 CLR
23:03 25.2 °C 11.4 °C 1015.1 hPa Calm     42 % 0.0 mm 0.0 W/m2 CLR
23:08 25.0 °C 11.6 °C 1015.1 hPa Calm     43 % 0.0 mm 0.0 W/m2 CLR
23:13 24.8 °C 11.7 °C 1015.1 hPa Calm     44 % 0.0 mm 0.0 W/m2 CLR
23:18 24.6 °C 11.6 °C 1015.5 hPa Calm     44 % 0.0 mm 0.0 W/m2 CLR
23:23 24.3 °C 11.3 °C 1015.5 hPa Calm     44 % 0.0 mm 0.0 W/m2 CLR
23:28 23.9 °C 11.6 °C 1015.5 hPa Calm     46 % 0.0 mm 0.0 W/m2 CLR
23:33 23.7 °C 12.0 °C 1015.5 hPa Calm     48 % 0.0 mm 0.0 W/m2 CLR
23:39 23.5 °C 11.8 °C 1015.5 hPa Calm     48 % 0.0 mm 0.0 W/m2 CLR
23:44 23.3 °C 11.7 °C 1015.5 hPa Calm     48 % 0.0 mm 0.0 W/m2 CLR
23:49 23.3 °C 11.9 °C 1015.5 hPa Calm     49 % 0.0 mm 0.0 W/m2 CLR
23:54 23.2 °C 11.9 °C 1015.5 hPa Calm     49 % 0.0 mm 0.0 W/m2 CLR
23:59 23.2 °C 12.4 °C 1015.5 hPa Calm     51 % 0.0 mm 0.0 W/m2 CLR
Lo Temps de Massalio
Compliments of Weather Underground - 1.25 mb